sat.trackr.live / text

‹ back to catalog

PACE-1

NORAD 48909 · 2021-059AG

PAYLOAD ACTIVE UNKNOWN

§ Identity

Operator
Country
US
Launch date
2021-06-30
Launch site
AFETR
Launch vehicle
Mass (kg)
RCS (m²)

External: N2YO · Heavens-Above · Gunter

§ Orbital elements

Epoch: 2026-05-25T01:40:13.707840Z

Period
91.38 min
Inclination
97.6793°
Eccentricity
0.0002064
Mean motion
15.75841241 rev/d
Perigee alt
340.9 km
Apogee alt
343.6 km
Semi-major
6,720.4 km
B*
4.4851e-4
RAAN
340.6744°
Arg perigee
69.0646°
Mean anomaly
291.0839°
Rev number
27,415

§ Raw data

PACE-11 48909U 21059AG  26145.06960310  .00069248  00000+0  44851-3 0  99932 48909  97.6793 340.6744 0002064  69.0646 291.0839 15.75841241274153

JSON: /api/v1/satellites/48909 · /tle

For live sub-satellite position, see the globe view (requires WebGL).

§ Visibility from observer

Set your observer location to see the next 7 days of passes ≥ 10°. The values pass through the URL so the page stays shareable.

No JS? Fill the form by hand. The geolocation button needs JavaScript.

§ Radio — SatNOGS DB

ModeDescriptionDownlinkUplink
FM S-band telemetry 2.283 GHz

1 transmitter · refreshed weekly from db.satnogs.org